Time,TemperatureF,DewpointF,PressureIn,WindDirection,WindDirectionDegrees,WindSpeedMPH,WindSpeedGustMPH,Humidity,HourlyPrecipIn,Conditions,Clouds,dailyrainin,SolarRadiationWatts/m^2,SoftwareType,DateUTC
2013-06-03 00:12:00,59.0,23.0,-100.00,West,261,6.0,7.0,25,0.00,,,0.00,0.000000,,2013-06-03 06:12:00,
2013-06-03 00:22:00,59.0,23.0,-100.00,West,261,6.0,7.0,25,0.00,,,0.00,0.000000,,2013-06-03 06:22:00,
2013-06-03 00:32:00,59.0,23.0,-100.00,West,261,6.0,7.0,25,0.00,,,0.00,0.000000,,2013-06-03 06:32:00,
2013-06-03 00:42:00,59.0,23.0,-100.00,West,261,6.0,7.0,25,0.00,,,0.00,0.000000,,2013-06-03 06:42:00,
2013-06-03 00:51:00,57.0,24.0,-100.00,WSW,253,4.0,8.0,28,0.00,,,0.00,0.000000,,2013-06-03 06:51:00,
2013-06-03 01:12:00,57.0,24.0,-100.00,WSW,253,4.0,8.0,28,0.00,,,0.00,0.000000,,2013-06-03 07:12:00,
2013-06-03 01:22:00,57.0,24.0,-100.00,WSW,253,4.0,8.0,28,0.00,,,0.00,0.000000,,2013-06-03 07:22:00,
2013-06-03 01:32:00,57.0,24.0,-100.00,WSW,253,4.0,8.0,28,0.00,,,0.00,0.000000,,2013-06-03 07:32:00,
2013-06-03 01:42:00,57.0,24.0,-100.00,WSW,253,4.0,8.0,28,0.00,,,0.00,0.000000,,2013-06-03 07:42:00,
2013-06-03 01:51:00,56.0,27.0,-100.00,WNW,282,5.0,8.0,32,0.00,,,0.00,0.000000,,2013-06-03 07:51:00,
2013-06-03 02:12:00,56.0,27.0,-100.00,WNW,282,5.0,8.0,32,0.00,,,0.00,0.000000,,2013-06-03 08:12:00,
2013-06-03 02:22:00,56.0,27.0,-100.00,WNW,282,5.0,8.0,32,0.00,,,0.00,0.000000,,2013-06-03 08:22:00,
2013-06-03 02:32:00,56.0,27.0,-100.00,WNW,282,5.0,8.0,32,0.00,,,0.00,0.000000,,2013-06-03 08:32:00,
2013-06-03 02:42:00,56.0,27.0,-100.00,WNW,282,5.0,8.0,32,0.00,,,0.00,0.000000,,2013-06-03 08:42:00,
2013-06-03 02:51:00,57.0,25.0,-100.00,NE,47,1.0,6.0,29,0.00,,,-99.99,0.000000,,2013-06-03 08:51:00,
2013-06-03 03:12:00,57.0,25.0,-100.00,NE,47,1.0,6.0,29,0.00,,,-99.99,0.000000,,2013-06-03 09:12:00,
2013-06-03 03:22:00,57.0,25.0,-100.00,NE,47,1.0,6.0,29,0.00,,,-99.99,0.000000,,2013-06-03 09:22:00,
2013-06-03 03:33:00,57.0,25.0,-100.00,NE,47,1.0,6.0,29,0.00,,,-99.99,0.000000,,2013-06-03 09:33:00,
2013-06-03 03:42:00,57.0,25.0,-100.00,NE,47,1.0,6.0,29,0.00,,,-99.99,0.000000,,2013-06-03 09:42:00,
2013-06-03 03:51:00,54.0,26.0,-100.00,WNW,295,1.0,5.0,33,0.00,,,0.00,0.000000,,2013-06-03 09:51:00,
2013-06-03 04:12:00,54.0,26.0,-100.00,WNW,295,1.0,5.0,33,0.00,,,0.00,0.000000,,2013-06-03 10:12:00,
2013-06-03 04:22:00,54.0,26.0,-100.00,WNW,295,1.0,5.0,33,0.00,,,0.00,0.000000,,2013-06-03 10:22:00,
2013-06-03 04:33:00,54.0,26.0,-100.00,WNW,295,1.0,5.0,33,0.00,,,0.00,0.000000,,2013-06-03 10:33:00,
2013-06-03 04:42:00,54.0,26.0,-100.00,WNW,295,1.0,5.0,33,0.00,,,0.00,0.000000,,2013-06-03 10:42:00,
2013-06-03 04:51:00,53.0,27.0,-100.00,North,358,3.0,5.0,36,0.00,,,0.00,0.000000,,2013-06-03 10:51:00,
2013-06-03 05:12:00,53.0,27.0,-100.00,North,358,3.0,5.0,36,0.00,,,0.00,0.000000,,2013-06-03 11:12:00,
2013-06-03 05:22:00,53.0,27.0,-100.00,North,358,3.0,5.0,36,0.00,,,0.00,0.000000,,2013-06-03 11:22:00,
2013-06-03 05:32:00,53.0,27.0,-100.00,North,358,3.0,5.0,36,0.00,,,0.00,0.000000,,2013-06-03 11:32:00,
2013-06-03 05:42:00,53.0,27.0,-100.00,North,358,3.0,5.0,36,0.00,,,0.00,0.000000,,2013-06-03 11:42:00,
2013-06-03 05:51:00,52.0,27.0,-100.00,North,8,4.0,8.0,37,0.00,,,0.00,1.000000,,2013-06-03 11:51:00,
2013-06-03 06:12:00,52.0,27.0,-100.00,North,8,4.0,8.0,37,0.00,,,0.00,1.000000,,2013-06-03 12:12:00,
2013-06-03 06:22:00,52.0,27.0,-100.00,North,8,4.0,8.0,37,0.00,,,0.00,1.000000,,2013-06-03 12:22:00,
2013-06-03 06:32:00,52.0,27.0,-100.00,North,8,4.0,8.0,37,0.00,,,0.00,1.000000,,2013-06-03 12:32:00,
2013-06-03 06:42:00,52.0,27.0,-100.00,North,8,4.0,8.0,37,0.00,,,0.00,1.000000,,2013-06-03 12:42:00,
2013-06-03 06:51:00,58.0,28.0,-100.00,East,81,5.0,12.0,31,0.00,,,0.00,83.000000,,2013-06-03 12:51:00,
2013-06-03 07:12:00,58.0,28.0,-100.00,East,81,5.0,12.0,31,0.00,,,0.00,83.000000,,2013-06-03 13:12:00,
2013-06-03 07:22:00,58.0,28.0,-100.00,East,81,5.0,12.0,31,0.00,,,0.00,83.000000,,2013-06-03 13:22:00,
2013-06-03 07:32:00,58.0,28.0,-100.00,East,81,5.0,12.0,31,0.00,,,0.00,83.000000,,2013-06-03 13:32:00,
2013-06-03 07:42:00,58.0,28.0,-100.00,East,81,5.0,12.0,31,0.00,,,0.00,83.000000,,2013-06-03 13:42:00,
2013-06-03 07:51:00,60.0,28.0,-100.00,ENE,58,4.0,8.0,29,0.00,,,0.00,283.000000,,2013-06-03 13:51:00,
2013-06-03 08:12:00,60.0,28.0,-100.00,ENE,58,4.0,8.0,29,0.00,,,0.00,283.000000,,2013-06-03 14:12:00,
2013-06-03 08:22:00,60.0,28.0,-100.00,ENE,58,4.0,8.0,29,0.00,,,0.00,283.000000,,2013-06-03 14:22:00,
2013-06-03 08:32:00,60.0,28.0,-100.00,ENE,58,4.0,8.0,29,0.00,,,0.00,283.000000,,2013-06-03 14:32:00,
2013-06-03 08:42:00,60.0,28.0,-100.00,ENE,58,4.0,8.0,29,0.00,,,0.00,283.000000,,2013-06-03 14:42:00,
2013-06-03 08:51:00,63.0,31.0,-100.00,ENE,60,4.0,13.0,30,0.00,,,0.00,516.000000,,2013-06-03 14:51:00,
2013-06-03 09:12:00,63.0,31.0,-100.00,ENE,60,4.0,13.0,30,0.00,,,0.00,516.000000,,2013-06-03 15:12:00,
2013-06-03 09:22:00,63.0,31.0,-100.00,ENE,60,4.0,13.0,30,0.00,,,0.00,516.000000,,2013-06-03 15:22:00,
2013-06-03 09:33:00,63.0,31.0,-100.00,ENE,60,4.0,13.0,30,0.00,,,0.00,516.000000,,2013-06-03 15:33:00,
2013-06-03 09:43:00,63.0,31.0,-100.00,ENE,60,4.0,13.0,30,0.00,,,0.00,516.000000,,2013-06-03 15:43:00,
2013-06-03 09:51:00,69.0,32.0,-100.00,NE,34,2.0,7.0,25,0.00,,,-99.99,747.000000,,2013-06-03 15:51:00,
2013-06-03 10:12:00,69.0,32.0,-100.00,NE,34,2.0,7.0,25,0.00,,,-99.99,747.000000,,2013-06-03 16:12:00,
2013-06-03 10:23:00,69.0,32.0,-100.00,NE,34,2.0,7.0,25,0.00,,,-99.99,747.000000,,2013-06-03 16:23:00,
2013-06-03 10:33:00,69.0,32.0,-100.00,NE,34,2.0,7.0,25,0.00,,,-99.99,747.000000,,2013-06-03 16:33:00,
2013-06-03 10:42:00,69.0,32.0,-100.00,NE,34,2.0,7.0,25,0.00,,,-99.99,747.000000,,2013-06-03 16:42:00,
2013-06-03 10:51:00,74.0,32.0,-100.00,WNW,302,5.0,11.0,21,0.00,,,0.00,943.000000,,2013-06-03 16:51:00,
2013-06-03 11:12:00,74.0,32.0,-100.00,WNW,302,5.0,11.0,21,0.00,,,0.00,943.000000,,2013-06-03 17:12:00,
2013-06-03 11:22:00,74.0,32.0,-100.00,WNW,302,5.0,11.0,21,0.00,,,0.00,943.000000,,2013-06-03 17:22:00,
2013-06-03 11:33:00,74.0,32.0,-100.00,WNW,302,5.0,11.0,21,0.00,,,0.00,943.000000,,2013-06-03 17:33:00,
2013-06-03 11:42:00,74.0,32.0,-100.00,WNW,302,5.0,11.0,21,0.00,,,0.00,943.000000,,2013-06-03 17:42:00,
2013-06-03 11:51:00,79.0,24.0,-100.00,West,275,14.0,26.0,13,0.00,,,0.00,1082.000000,,2013-06-03 17:51:00,
2013-06-03 12:12:00,79.0,24.0,-100.00,West,275,14.0,26.0,13,0.00,,,0.00,1082.000000,,2013-06-03 18:12:00,
2013-06-03 12:22:00,79.0,24.0,-100.00,West,275,14.0,26.0,13,0.00,,,0.00,1082.000000,,2013-06-03 18:22:00,
2013-06-03 12:32:00,79.0,24.0,-100.00,West,275,14.0,26.0,13,0.00,,,0.00,1082.000000,,2013-06-03 18:32:00,
2013-06-03 12:42:00,79.0,24.0,-100.00,West,275,14.0,26.0,13,0.00,,,0.00,1082.000000,,2013-06-03 18:42:00,
2013-06-03 12:51:00,81.0,22.0,-100.00,West,263,19.0,29.0,11,0.00,,,0.00,1146.000000,,2013-06-03 18:51:00,
2013-06-03 13:12:00,81.0,22.0,-100.00,West,263,19.0,29.0,11,0.00,,,0.00,1146.000000,,2013-06-03 19:12:00,
2013-06-03 13:22:00,81.0,22.0,-100.00,West,263,19.0,29.0,11,0.00,,,0.00,1146.000000,,2013-06-03 19:22:00,
2013-06-03 13:32:00,81.0,22.0,-100.00,West,263,19.0,29.0,11,0.00,,,0.00,1146.000000,,2013-06-03 19:32:00,
2013-06-03 13:42:00,81.0,22.0,-100.00,West,263,19.0,29.0,11,0.00,,,0.00,1146.000000,,2013-06-03 19:42:00,
2013-06-03 13:51:00,83.0,23.0,-100.00,West,265,17.0,29.0,11,0.00,,,0.00,1196.000000,,2013-06-03 19:51:00,
2013-06-03 14:12:00,83.0,23.0,-100.00,West,265,17.0,29.0,11,0.00,,,0.00,1196.000000,,2013-06-03 20:12:00,
2013-06-03 14:22:00,83.0,23.0,-100.00,West,265,17.0,29.0,11,0.00,,,0.00,1196.000000,,2013-06-03 20:22:00,
2013-06-03 14:32:00,83.0,23.0,-100.00,West,265,17.0,29.0,11,0.00,,,0.00,1196.000000,,2013-06-03 20:32:00,
2013-06-03 14:42:00,83.0,23.0,-100.00,West,265,17.0,29.0,11,0.00,,,0.00,1196.000000,,2013-06-03 20:42:00,
2013-06-03 14:51:00,84.0,22.0,-100.00,WSW,257,20.0,31.0,10,0.00,,,0.00,1157.000000,,2013-06-03 20:51:00,
2013-06-03 15:12:00,84.0,22.0,-100.00,WSW,257,20.0,31.0,10,0.00,,,0.00,1157.000000,,2013-06-03 21:12:00,
2013-06-03 15:22:00,84.0,22.0,-100.00,WSW,257,20.0,31.0,10,0.00,,,0.00,1157.000000,,2013-06-03 21:22:00,
2013-06-03 15:33:00,84.0,22.0,-100.00,WSW,257,20.0,31.0,10,0.00,,,0.00,1157.000000,,2013-06-03 21:33:00,
2013-06-03 15:43:00,84.0,22.0,-100.00,WSW,257,20.0,31.0,10,0.00,,,0.00,1157.000000,,2013-06-03 21:43:00,
2013-06-03 15:51:00,84.0,22.0,-100.00,West,265,18.0,38.0,10,0.00,,,0.00,1085.000000,,2013-06-03 21:51:00,
2013-06-03 16:12:00,84.0,22.0,-100.00,West,265,18.0,38.0,10,0.00,,,0.00,1085.000000,,2013-06-03 22:12:00,
2013-06-03 16:22:00,84.0,22.0,-100.00,West,265,18.0,38.0,10,0.00,,,0.00,1085.000000,,2013-06-03 22:22:00,
2013-06-03 16:32:00,84.0,22.0,-100.00,West,265,18.0,38.0,10,0.00,,,0.00,1085.000000,,2013-06-03 22:32:00,
2013-06-03 16:42:00,84.0,22.0,-100.00,West,265,18.0,38.0,10,0.00,,,0.00,1085.000000,,2013-06-03 22:42:00,
2013-06-03 16:51:00,80.0,23.0,-100.00,WNW,284,16.0,31.0,12,0.00,,,0.00,444.000000,,2013-06-03 22:51:00,
2013-06-03 17:12:00,80.0,23.0,-100.00,WNW,284,16.0,31.0,12,0.00,,,0.00,444.000000,,2013-06-03 23:12:00,
2013-06-03 17:22:00,80.0,23.0,-100.00,WNW,284,16.0,31.0,12,0.00,,,0.00,444.000000,,2013-06-03 23:22:00,
2013-06-03 17:32:00,80.0,23.0,-100.00,WNW,284,16.0,31.0,12,0.00,,,0.00,444.000000,,2013-06-03 23:32:00,
2013-06-03 17:42:00,80.0,23.0,-100.00,WNW,284,16.0,31.0,12,0.00,,,0.00,444.000000,,2013-06-03 23:42:00,
2013-06-03 17:51:00,79.0,27.0,-100.00,NW,319,8.0,29.0,15,0.00,,,0.00,380.000000,,2013-06-03 23:51:00,
2013-06-03 18:12:00,79.0,27.0,-100.00,NW,319,8.0,29.0,15,0.00,,,0.00,380.000000,,2013-06-04 00:12:00,
2013-06-03 18:22:00,79.0,27.0,-100.00,NW,319,8.0,29.0,15,0.00,,,0.00,380.000000,,2013-06-04 00:22:00,
2013-06-03 18:32:00,79.0,27.0,-100.00,NW,319,8.0,29.0,15,0.00,,,0.00,380.000000,,2013-06-04 00:32:00,
2013-06-03 18:42:00,79.0,27.0,-100.00,NW,319,8.0,29.0,15,0.00,,,0.00,380.000000,,2013-06-04 00:42:00,
2013-06-03 18:51:00,77.0,29.0,-100.00,West,271,5.0,41.0,17,0.00,,,0.00,185.000000,,2013-06-04 00:51:00,
2013-06-03 19:12:00,77.0,29.0,-100.00,West,271,5.0,41.0,17,0.00,,,0.00,185.000000,,2013-06-04 01:12:00,
2013-06-03 19:22:00,77.0,29.0,-100.00,West,271,5.0,41.0,17,0.00,,,0.00,185.000000,,2013-06-04 01:22:00,
2013-06-03 19:32:00,77.0,29.0,-100.00,West,271,5.0,41.0,17,0.00,,,0.00,185.000000,,2013-06-04 01:32:00,
2013-06-03 19:42:00,77.0,29.0,-100.00,West,271,5.0,41.0,17,0.00,,,0.00,185.000000,,2013-06-04 01:42:00,
2013-06-03 19:51:00,77.0,30.0,-100.00,West,271,10.0,18.0,18,0.00,,,0.00,272.000000,,2013-06-04 01:51:00,
2013-06-03 20:12:00,77.0,30.0,-100.00,West,271,10.0,18.0,18,0.00,,,0.00,272.000000,,2013-06-04 02:12:00,
2013-06-03 20:22:00,77.0,30.0,-100.00,West,271,10.0,18.0,18,0.00,,,0.00,272.000000,,2013-06-04 02:22:00,
2013-06-03 20:32:00,77.0,30.0,-100.00,West,271,10.0,18.0,18,0.00,,,0.00,272.000000,,2013-06-04 02:32:00,
2013-06-03 20:42:00,77.0,30.0,-100.00,West,271,10.0,18.0,18,0.00,,,0.00,272.000000,,2013-06-04 02:42:00,
2013-06-03 20:51:00,73.0,30.0,-100.00,West,265,10.0,23.0,20,0.00,,,0.00,28.000000,,2013-06-04 02:51:00,
2013-06-03 21:12:00,73.0,30.0,-100.00,West,265,10.0,23.0,20,0.00,,,0.00,28.000000,,2013-06-04 03:12:00,
2013-06-03 21:22:00,73.0,30.0,-100.00,West,265,10.0,23.0,20,0.00,,,0.00,28.000000,,2013-06-04 03:22:00,
2013-06-03 21:32:00,73.0,30.0,-100.00,West,265,10.0,23.0,20,0.00,,,0.00,28.000000,,2013-06-04 03:32:00,
2013-06-03 21:43:00,73.0,30.0,-100.00,West,265,10.0,23.0,20,0.00,,,0.00,28.000000,,2013-06-04 03:43:00,
2013-06-03 21:51:00,72.0,30.0,-100.00,WNW,290,7.0,16.0,21,0.00,,,0.00,0.000000,,2013-06-04 03:51:00,
2013-06-03 22:13:00,72.0,30.0,-100.00,WNW,290,7.0,16.0,21,0.00,,,0.00,0.000000,,2013-06-04 04:13:00,
2013-06-03 22:23:00,72.0,30.0,-100.00,WNW,290,7.0,16.0,21,0.00,,,0.00,0.000000,,2013-06-04 04:23:00,
2013-06-03 22:33:00,72.0,30.0,-100.00,WNW,290,7.0,16.0,21,0.00,,,0.00,0.000000,,2013-06-04 04:33:00,
2013-06-03 22:42:00,72.0,30.0,-100.00,WNW,290,7.0,16.0,21,0.00,,,0.00,0.000000,,2013-06-04 04:42:00,
2013-06-03 22:51:00,71.0,21.0,-100.00,West,262,7.0,18.0,15,0.00,,,0.00,0.000000,,2013-06-04 04:51:00,
2013-06-03 23:12:00,71.0,21.0,-100.00,West,262,7.0,18.0,15,0.00,,,0.00,0.000000,,2013-06-04 05:12:00,
2013-06-03 23:22:00,71.0,21.0,-100.00,West,262,7.0,18.0,15,0.00,,,0.00,0.000000,,2013-06-04 05:22:00,
2013-06-03 23:32:00,71.0,21.0,-100.00,West,262,7.0,18.0,15,0.00,,,0.00,0.000000,,2013-06-04 05:32:00,
2013-06-03 23:42:00,71.0,21.0,-100.00,West,262,7.0,18.0,15,0.00,,,0.00,0.000000,,2013-06-04 05:42:00,
2013-06-03 23:51:00,67.0,18.0,-100.00,WNW,292,4.0,20.0,15,-99.99,,,0.00,0.000000,,2013-06-04 05:51:00,